| time (UTC) | temp F | wind direction | speed MPH | gust MPH | rain 1hr in | rain 24hr in | rain mn in | humidity % | barometer mb |
| 20260504044547 | 55 | 0 | 0.0 | 2.0 | 0.00 | 0.00 | 0.00 | 67 | 1009.0 |
| 20260504044035 | 55 | 295 | 0.0 | 2.0 | 0.00 | 0.00 | 0.00 | 67 | 1009.0 |
| 20260504043531 | 55 | 0 | 0.0 | 2.0 | 0.00 | 0.00 | 0.00 | 65 | 1008.9 |
| 20260504043055 | 56 | 0 | 0.0 | 0.0 | 0.00 | 0.00 | 0.00 | 64 | 1008.9 |
| 20260504042535 | 56 | 0 | 0.0 | 0.0 | 0.00 | 0.00 | 0.00 | 64 | 1008.9 |
| 20260504042035 | 57 | 0 | 0.0 | 0.0 | 0.00 | 0.00 | 0.00 | 64 | 1009.0 |
| 20260504041546 | 57 | 0 | 0.0 | 0.0 | 0.00 | 0.00 | 0.00 | 62 | 1008.9 |
| 20260504041034 | 58 | 0 | 0.0 | 0.0 | 0.00 | 0.00 | 0.00 | 60 | 1008.9 |
| 20260504040535 | 59 | 0 | 0.0 | 0.0 | 0.00 | 0.00 | 0.00 | 58 | 1008.9 |
| 20260504040045 | 61 | 0 | 0.0 | 0.0 | 0.00 | 0.00 | 0.00 | 57 | 1008.8 |
| 20260504035534 | 61 | 0 | 0.0 | 0.0 | 0.00 | 0.00 | 0.00 | 56 | 1008.8 |
| 20260504035038 | 62 | 0 | 0.0 | 0.0 | 0.00 | 0.00 | 0.00 | 55 | 1008.8 |
| 20260504034541 | 63 | 0 | 0.0 | 0.0 | 0.00 | 0.00 | 0.00 | 54 | 1008.8 |
| 20260504034034 | 64 | 0 | 0.0 | 0.0 | 0.00 | 0.00 | 0.00 | 53 | 1008.8 |
| 20260504033534 | 64 | 0 | 0.0 | 0.0 | 0.00 | 0.00 | 0.00 | 52 | 1008.8 |
| 20260504033048 | 65 | 0 | 0.0 | 0.0 | 0.00 | 0.00 | 0.00 | 50 | 1008.8 |
| 20260504032535 | 66 | 0 | 0.0 | 1.0 | 0.00 | 0.00 | 0.00 | 50 | 1008.8 |
| 20260504032039 | 67 | 0 | 0.0 | 1.0 | 0.00 | 0.00 | 0.00 | 48 | 1008.8 |
| 20260504031550 | 68 | 295 | 0.0 | 1.0 | 0.00 | 0.00 | 0.00 | 46 | 1008.8 |
| 20260504031035 | 69 | 0 | 0.0 | 0.0 | 0.00 | 0.00 | 0.00 | 44 | 1008.9 |
| 20260504030534 | 70 | 0 | 0.0 | 0.0 | 0.00 | 0.00 | 0.00 | 43 | 1008.8 |
| 20260504030047 | 71 | 0 | 0.0 | 0.0 | 0.00 | 0.00 | 0.00 | 42 | 1008.8 |
| 20260504025537 | 72 | 0 | 0.0 | 0.0 | 0.00 | 0.00 | 0.00 | 42 | 1008.8 |
| 20260504025036 | 73 | 0 | 0.0 | 1.0 | 0.00 | 0.00 | 0.00 | 42 | 1008.7 |
| 20260504024545 | 74 | 0 | 0.0 | 1.0 | 0.00 | 0.00 | 0.00 | 37 | 1008.7 |
| 20260504024042 | 74 | 0 | 0.0 | 3.0 | 0.00 | 0.00 | 0.00 | 37 | 1008.8 |
| 20260504023536 | 74 | 0 | 0.0 | 3.0 | 0.00 | 0.00 | 0.00 | 35 | 1008.7 |
| 20260504023045 | 75 | 295 | 2.0 | 4.0 | 0.00 | 0.00 | 0.00 | 35 | 1008.8 |
| 20260504022535 | 76 | 295 | 2.0 | 4.0 | 0.00 | 0.00 | 0.00 | 34 | 1008.9 |
| 20260504022037 | 77 | 295 | 1.0 | 4.0 | 0.00 | 0.00 | 0.00 | 33 | 1008.8 |
| 20260504021549 | 79 | 295 | 1.0 | 4.0 | 0.00 | 0.00 | 0.00 | 32 | 1008.7 |
| 20260504021037 | 79 | 0 | 1.0 | 4.0 | 0.00 | 0.00 | 0.00 | 30 | 1008.8 |
| 20260504020534 | 80 | 295 | 0.0 | 7.0 | 0.00 | 0.00 | 0.00 | 30 | 1008.8 |
| 20260504020106 | 80 | 295 | 3.0 | 7.0 | 0.00 | 0.00 | 0.00 | 27 | 1008.9 |
| 20260504015535 | 81 | 295 | 5.0 | 7.0 | 0.00 | 0.00 | 0.00 | 28 | 1008.8 |
| 20260504015035 | 81 | 295 | 2.0 | 7.0 | 0.00 | 0.00 | 0.00 | 26 | 1008.9 |
| 20260504014554 | 82 | 295 | 3.0 | 8.0 | 0.00 | 0.00 | 0.00 | 26 | 1008.8 |
| 20260504014034 | 82 | 295 | 3.0 | 8.0 | 0.00 | 0.00 | 0.00 | 25 | 1008.9 |
| 20260504013534 | 82 | 295 | 4.0 | 11.0 | 0.00 | 0.00 | 0.00 | 25 | 1009.0 |
| 20260504013058 | 82 | 295 | 3.0 | 11.0 | 0.00 | 0.00 | 0.00 | 24 | 1009.0 |
| 20260504012536 | 82 | 295 | 4.0 | 11.0 | 0.00 | 0.00 | 0.00 | 23 | 1009.1 |
| 20260504012033 | 82 | 295 | 5.0 | 10.0 | 0.00 | 0.00 | 0.00 | 25 | 1009.1 |
| 20260504011546 | 82 | 295 | 6.0 | 9.0 | 0.00 | 0.00 | 0.00 | 25 | 1009.2 |
| 20260504011035 | 82 | 295 | 5.0 | 9.0 | 0.00 | 0.00 | 0.00 | 23 | 1009.4 |
| 20260504010535 | 82 | 295 | 5.0 | 9.0 | 0.00 | 0.00 | 0.00 | 24 | 1009.5 |
| 20260504010046 | 82 | 295 | 5.0 | 11.0 | 0.00 | 0.00 | 0.00 | 22 | 1009.5 |
| 20260504005535 | 82 | 295 | 6.0 | 11.0 | 0.00 | 0.00 | 0.00 | 22 | 1009.6 |
| 20260504005035 | 82 | 295 | 4.0 | 11.0 | 0.00 | 0.00 | 0.00 | 23 | 1009.6 |
| 20260504004605 | 82 | 295 | 4.0 | 13.0 | 0.00 | 0.00 | 0.00 | 22 | 1009.5 |
| 20260504004035 | 82 | 295 | 7.0 | 13.0 | 0.00 | 0.00 | 0.00 | 23 | 1009.6 |
| 20260504003534 | 82 | 295 | 6.0 | 11.0 | 0.00 | 0.00 | 0.00 | 22 | 1009.6 |
| 20260504003051 | 83 | 295 | 6.0 | 11.0 | 0.00 | 0.00 | 0.00 | 21 | 1009.8 |
| 20260504002535 | 83 | 295 | 6.0 | 13.0 | 0.00 | 0.00 | 0.00 | 20 | 1009.7 |
| 20260504002035 | 83 | 295 | 7.0 | 13.0 | 0.00 | 0.00 | 0.00 | 21 | 1009.8 |
| 20260504001616 | 82 | 295 | 9.0 | 12.0 | 0.00 | 0.00 | 0.00 | 21 | 1009.8 |
| 20260504001035 | 82 | 295 | 7.0 | 12.0 | 0.00 | 0.00 | 0.00 | 23 | 1009.8 |
| 20260504000535 | 83 | 295 | 7.0 | 12.0 | 0.00 | 0.00 | 0.00 | 22 | 1009.9 |
| 20260504000046 | 83 | 295 | 5.0 | 10.0 | 0.00 | 0.00 | 0.00 | 21 | 1009.9 |
| 20260503235537 | 82 | 295 | 5.0 | 13.0 | 0.00 | 0.00 | 0.00 | 21 | 1010.0 |
| 20260503235038 | 82 | 295 | 8.0 | 13.0 | 0.00 | 0.00 | 0.00 | 22 | 1010.0 |
| 20260503234544 | 83 | 295 | 7.0 | 11.0 | 0.00 | 0.00 | 0.00 | 23 | 1010.0 |
| 20260503234038 | 83 | 295 | 5.0 | 13.0 | 0.00 | 0.00 | 0.00 | 23 | 1010.1 |
| 20260503233534 | 83 | 295 | 4.0 | 13.0 | 0.00 | 0.00 | 0.00 | 22 | 1010.2 |
| 20260503233042 | 82 | 295 | 5.0 | 13.0 | 0.00 | 0.00 | 0.00 | 23 | 1010.3 |
| 20260503232534 | 82 | 295 | 7.0 | 13.0 | 0.00 | 0.00 | 0.00 | 22 | 1010.3 |
| 20260503232034 | 83 | 295 | 7.0 | 12.0 | 0.00 | 0.00 | 0.00 | 22 | 1010.3 |
| 20260503231548 | 82 | 295 | 5.0 | 13.0 | 0.00 | 0.00 | 0.00 | 21 | 1010.4 |
| 20260503231035 | 82 | 295 | 9.0 | 13.0 | 0.00 | 0.00 | 0.00 | 22 | 1010.6 |
| 20260503230535 | 82 | 295 | 5.0 | 17.0 | 0.00 | 0.00 | 0.00 | 23 | 1010.6 |
| 20260503230107 | 83 | 295 | 7.0 | 17.0 | 0.00 | 0.00 | 0.00 | 23 | 1010.7 |
| 20260503225535 | 83 | 295 | 9.0 | 17.0 | 0.00 | 0.00 | 0.00 | 24 | 1010.7 |
| 20260503225035 | 83 | 327 | 7.0 | 14.0 | 0.00 | 0.00 | 0.00 | 22 | 1010.8 |
| 20260503224544 | 82 | 327 | 4.0 | 16.0 | 0.00 | 0.00 | 0.00 | 22 | 1011.0 |
| 20260503224035 | 82 | 327 | 8.0 | 16.0 | 0.00 | 0.00 | 0.00 | 23 | 1011.0 |
| 20260503223535 | 83 | 339 | 6.0 | 15.0 | 0.00 | 0.00 | 0.00 | 22 | 1011.0 |
| 20260503223042 | 82 | 344 | 10.0 | 15.0 | 0.00 | 0.00 | 0.00 | 23 | 1011.0 |
| 20260503222535 | 83 | 352 | 7.0 | 13.0 | 0.00 | 0.00 | 0.00 | 24 | 1011.1 |
| 20260503222035 | 82 | 360 | 5.0 | 13.0 | 0.00 | 0.00 | 0.00 | 23 | 1011.0 |
| 20260503221554 | 83 | 360 | 7.0 | 13.0 | 0.00 | 0.00 | 0.00 | 23 | 1011.1 |
| 20260503221035 | 82 | 360 | 5.0 | 13.0 | 0.00 | 0.00 | 0.00 | 24 | 1011.2 |
| 20260503220535 | 83 | 360 | 5.0 | 12.0 | 0.00 | 0.00 | 0.00 | 23 | 1011.3 |
| 20260503220052 | 83 | 360 | 5.0 | 12.0 | 0.00 | 0.00 | 0.00 | 23 | 1011.4 |
| 20260503215535 | 82 | 360 | 3.0 | 10.0 | 0.00 | 0.00 | 0.00 | 24 | 1011.4 |
| 20260503215035 | 82 | 360 | 4.0 | 11.0 | 0.00 | 0.00 | 0.00 | 23 | 1011.5 |
| 20260503214550 | 82 | 360 | 6.0 | 12.0 | 0.00 | 0.00 | 0.00 | 23 | 1011.6 |
| 20260503214040 | 82 | 360 | 5.0 | 13.0 | 0.00 | 0.00 | 0.00 | 24 | 1011.6 |
| 20260503213536 | 81 | 360 | 5.0 | 13.0 | 0.00 | 0.00 | 0.00 | 24 | 1011.7 |
| 20260503213046 | 81 | 5 | 2.0 | 9.0 | 0.00 | 0.00 | 0.00 | 24 | 1011.7 |
| 20260503212536 | 81 | 5 | 3.0 | 9.0 | 0.00 | 0.00 | 0.00 | 24 | 1011.9 |
| 20260503212035 | 81 | 5 | 4.0 | 9.0 | 0.00 | 0.00 | 0.00 | 24 | 1011.9 |
| 20260503211548 | 81 | 5 | 4.0 | 15.0 | 0.00 | 0.00 | 0.00 | 24 | 1012.0 |
| 20260503211035 | 81 | 5 | 5.0 | 15.0 | 0.00 | 0.00 | 0.00 | 24 | 1012.2 |
| 20260503210535 | 82 | 5 | 3.0 | 12.0 | 0.00 | 0.00 | 0.00 | 24 | 1012.2 |
| 20260503210045 | 81 | 5 | 5.0 | 12.0 | 0.00 | 0.00 | 0.00 | 24 | 1012.2 |
| 20260503205536 | 81 | 5 | 8.0 | 12.0 | 0.00 | 0.00 | 0.00 | 24 | 1012.4 |
| 20260503205035 | 81 | 15 | 6.0 | 12.0 | 0.00 | 0.00 | 0.00 | 24 | 1012.5 |
| 20260503204546 | 81 | 15 | 4.0 | 10.0 | 0.00 | 0.00 | 0.00 | 25 | 1012.5 |
| 20260503204034 | 81 | 15 | 5.0 | 10.0 | 0.00 | 0.00 | 0.00 | 25 | 1012.5 |
| 20260503203534 | 81 | 15 | 4.0 | 8.0 | 0.00 | 0.00 | 0.00 | 24 | 1012.6 |
| 20260503203103 | 81 | 15 | 2.0 | 11.0 | 0.00 | 0.00 | 0.00 | 24 | 1012.7 |
| 20260503202537 | 81 | 15 | 2.0 | 11.0 | 0.00 | 0.00 | 0.00 | 25 | 1012.7 |
| 20260503202036 | 80 | 15 | 2.0 | 10.0 | 0.00 | 0.00 | 0.00 | 27 | 1012.7 |
| 20260503201546 | 79 | 15 | 6.0 | 10.0 | 0.00 | 0.00 | 0.00 | 25 | 1012.8 |
| 20260503201034 | 80 | 15 | 8.0 | 13.0 | 0.00 | 0.00 | 0.00 | 24 | 1012.8 |
| 20260503200546 | 80 | 15 | 5.0 | 13.0 | 0.00 | 0.00 | 0.00 | 25 | 1012.9 |
| 20260503200047 | 80 | 15 | 7.0 | 13.0 | 0.00 | 0.00 | 0.00 | 24 | 1012.9 |
| 20260503195535 | 79 | 15 | 7.0 | 11.0 | 0.00 | 0.00 | 0.00 | 23 | 1013.0 |
| 20260503195035 | 79 | 15 | 7.0 | 11.0 | 0.00 | 0.00 | 0.00 | 23 | 1013.0 |
| 20260503194636 | 80 | 15 | 6.0 | 13.0 | 0.00 | 0.00 | 0.00 | 22 | 1013.0 |
| 20260503194035 | 79 | 15 | 5.0 | 13.0 | 0.00 | 0.00 | 0.00 | 23 | 1013.2 |
| 20260503193534 | 79 | 15 | 5.0 | 12.0 | 0.00 | 0.00 | 0.00 | 23 | 1013.3 |
| 20260503193049 | 79 | 27 | 5.0 | 12.0 | 0.00 | 0.00 | 0.00 | 23 | 1013.3 |
| 20260503192531 | 79 | 27 | 5.0 | 12.0 | 0.00 | 0.00 | 0.00 | 22 | 1013.4 |
| 20260503192034 | 79 | 27 | 4.0 | 12.0 | 0.00 | 0.00 | 0.00 | 25 | 1013.4 |
| 20260503191549 | 79 | 27 | 6.0 | 11.0 | 0.00 | 0.00 | 0.00 | 23 | 1013.4 |
| 20260503191034 | 78 | 28 | 5.0 | 11.0 | 0.00 | 0.00 | 0.00 | 24 | 1013.5 |
| 20260503190535 | 78 | 28 | 5.0 | 11.0 | 0.00 | 0.00 | 0.00 | 26 | 1013.6 |
| 20260503190044 | 78 | 28 | 4.0 | 10.0 | 0.00 | 0.00 | 0.00 | 25 | 1013.7 |
| 20260503185535 | 78 | 28 | 6.0 | 11.0 | 0.00 | 0.00 | 0.00 | 26 | 1013.6 |
| 20260503185034 | 77 | 0 | 4.0 | 11.0 | 0.00 | 0.00 | 0.00 | 26 | 1013.7 |
| 20260503184545 | 77 | 28 | 6.0 | 11.0 | 0.00 | 0.00 | 0.00 | 26 | 1013.9 |
| 20260503184035 | 77 | 28 | 5.0 | 15.0 | 0.00 | 0.00 | 0.00 | 27 | 1014.0 |
| 20260503183535 | 77 | 28 | 6.0 | 15.0 | 0.00 | 0.00 | 0.00 | 26 | 1014.0 |
| 20260503183049 | 77 | 27 | 10.0 | 15.0 | 0.00 | 0.00 | 0.00 | 26 | 1014.1 |
| 20260503182534 | 77 | 28 | 10.0 | 15.0 | 0.00 | 0.00 | 0.00 | 26 | 1014.1 |
| 20260503182036 | 77 | 27 | 10.0 | 15.0 | 0.00 | 0.00 | 0.00 | 26 | 1014.2 |
| 20260503181546 | 77 | 28 | 9.0 | 13.0 | 0.00 | 0.00 | 0.00 | 28 | 1014.1 |
| 20260503181034 | 76 | 28 | 8.0 | 15.0 | 0.00 | 0.00 | 0.00 | 27 | 1014.2 |
| 20260503180534 | 76 | 29 | 8.0 | 15.0 | 0.00 | 0.00 | 0.00 | 28 | 1014.1 |
| 20260503180053 | 76 | 28 | 8.0 | 13.0 | 0.00 | 0.00 | 0.00 | 28 | 1014.2 |
| 20260503175534 | 76 | 28 | 6.0 | 13.0 | 0.00 | 0.00 | 0.00 | 31 | 1014.2 |
| 20260503175035 | 76 | 28 | 8.0 | 13.0 | 0.00 | 0.00 | 0.00 | 31 | 1014.2 |
| 20260503174546 | 75 | 30 | 8.0 | 13.0 | 0.00 | 0.00 | 0.00 | 33 | 1014.2 |
| 20260503174036 | 75 | 25 | 8.0 | 12.0 | 0.00 | 0.00 | 0.00 | 32 | 1014.2 |
| 20260503173535 | 75 | 25 | 8.0 | 13.0 | 0.00 | 0.00 | 0.00 | 31 | 1014.1 |
| 20260503173049 | 75 | 25 | 9.0 | 13.0 | 0.00 | 0.00 | 0.00 | 33 | 1014.2 |
| 20260503172535 | 75 | 26 | 9.0 | 13.0 | 0.00 | 0.00 | 0.00 | 34 | 1014.2 |
| 20260503172034 | 75 | 26 | 5.0 | 13.0 | 0.00 | 0.00 | 0.00 | 34 | 1014.3 |
| 20260503171539 | 75 | 26 | 4.0 | 10.0 | 0.00 | 0.00 | 0.00 | 34 | 1014.3 |
| 20260503171035 | 74 | 26 | 6.0 | 9.0 | 0.00 | 0.00 | 0.00 | 37 | 1014.2 |
| 20260503170535 | 73 | 26 | 4.0 | 10.0 | 0.00 | 0.00 | 0.00 | 40 | 1014.2 |
| 20260503150536 | 62 | 26 | 6.0 | 10.0 | 0.00 | 0.00 | 0.00 | 58 | 1014.4 |
| 20260503131034 | 48 | 26 | 0.0 | 3.0 | 0.00 | 0.00 | 0.00 | 82 | 1014.3 |
| 20260503130534 | 48 | 0 | 1.0 | 3.0 | 0.00 | 0.00 | 0.00 | 81 | 1014.4 |
| 20260503110535 | 52 | 26 | 1.0 | 2.0 | 0.00 | 0.00 | 0.00 | 71 | 1014.0 |
| 20260503100104 | 55 | 26 | 1.0 | 3.0 | 0.00 | 0.00 | 0.00 | 66 | 1013.7 |
| 20260503081550 | 55 | 26 | 2.0 | 6.0 | 0.00 | 0.00 | 0.00 | 64 | 1013.7 |
| 20260503081035 | 55 | 26 | 4.0 | 6.0 | 0.00 | 0.00 | 0.00 | 63 | 1013.9 |
| 20260503080535 | 56 | 26 | 0.0 | 3.0 | 0.00 | 0.00 | 0.00 | 62 | 1013.8 |
| 20260503072535 | 56 | 26 | 0.0 | 3.0 | 0.00 | 0.00 | 0.00 | 60 | 1013.7 |
| 20260503072037 | 56 | 26 | 0.0 | 2.0 | 0.00 | 0.00 | 0.00 | 60 | 1013.7 |
| 20260503071545 | 57 | 0 | 0.0 | 3.0 | 0.00 | 0.00 | 0.00 | 58 | 1013.6 |
| 20260503071035 | 57 | 26 | 1.0 | 3.0 | 0.00 | 0.00 | 0.00 | 59 | 1013.7 |
| 20260503070535 | 57 | 26 | 1.0 | 2.0 | 0.00 | 0.00 | 0.00 | 58 | 1013.6 |
| 20260503060108 | 59 | 0 | 0.0 | 3.0 | 0.00 | 0.00 | 0.00 | 57 | 1013.3 |
| 20260503055035 | 59 | 26 | 1.0 | 3.0 | 0.00 | 0.00 | 0.00 | 56 | 1013.3 |
| 20260503054600 | 59 | 0 | 0.0 | 0.0 | 0.00 | 0.00 | 0.00 | 56 | 1013.5 |
| 20260503054037 | 60 | 0 | 0.0 | 0.0 | 0.00 | 0.00 | 0.00 | 56 | 1013.4 |
| 20260503053535 | 60 | 0 | 0.0 | 0.0 | 0.00 | 0.00 | 0.00 | 56 | 1013.5 |
| 20260503053044 | 60 | 0 | 0.0 | 2.0 | 0.00 | 0.00 | 0.00 | 55 | 1013.4 |
| 20260503052536 | 60 | 0 | 0.0 | 2.0 | 0.00 | 0.00 | 0.00 | 55 | 1013.4 |
| 20260503052032 | 60 | 26 | 1.0 | 2.0 | 0.00 | 0.00 | 0.00 | 55 | 1013.2 |
| 20260503051542 | 60 | 26 | 0.0 | 3.0 | 0.00 | 0.00 | 0.00 | 55 | 1013.3 |
| 20260503051034 | 60 | 26 | 1.0 | 3.0 | 0.00 | 0.00 | 0.00 | 55 | 1013.4 |
| 20260503050532 | 61 | 26 | 1.0 | 2.0 | 0.00 | 0.00 | 0.00 | 54 | 1013.4 |
| 20260503050043 | 61 | 26 | 1.0 | 3.0 | 0.00 | 0.00 | 0.00 | 53 | 1013.3 |
| 20260503045532 | 62 | 26 | 0.0 | 3.0 | 0.00 | 0.00 | 0.00 | 52 | 1013.3 |
| 20260503045036 | 63 | 26 | 0.0 | 2.0 | 0.00 | 0.00 | 0.00 | 50 | 1013.2 |